Regional Weather Roundup
Issued by NWS

Home | Current Version | Previous Version | Text Only | Print | Product List | Glossary Off
Versions: 1 2 3 4 5 6 7 8 9 10 11 12 13 14 15 16 17 18 19 20 21 22 23 24 25 26 27 28 29 30 31 32 33 34 35 36 37 38 39 40 41 42 43 44 45 46 47 48 49 50

000
ASUS45 KABQ 260501
RWRNM
NEW MEXICO REGIONAL WEATHER ROUNDUP
NATIONAL WEATHER SERVICE ALBUQUERQUE NM
1100 PM MDT THU MAY 25 2017

NOTE: "FAIR" MEANS FEW OR NO CLOUDS BELOW 12,000 FEET AGL WITH NO
       SIGNIFICANT WEATHER OR OBSTRUCTIONS TO VISION.

      THIS PRODUCT IS RELEASED AS TWO VERSIONS.  ONE VERSION NEAR
      THE TOP OF THE HOUR CONTAINING PRELIMINARY DATA FROM ALBUQUERQUE
      AND OTHER STATIONS.  A FINAL VERSION WITH ADDITIONAL DATA IS
      ISSUED ABOUT 10 MINUTES AFTER THE HOUR.

NMZ501-503-504-510>518-260600-
NORTHWEST PLATEAU/NORTHCENTRAL MOUNTAINS

CITY           SKY/WX    TMP DP  RH WIND       PRES   REMARKS
FARMINGTON     FAIR      66  21  18 W9        29.83R
LOS ALAMOS     FAIR      66  13  12 SW15G22   29.98R
SANTA FE       FAIR      62  12  14 SW10      29.93R
TAOS           FAIR      54  19  26 CALM      29.97R

$$
NMZ402-403-502-505>509-260600-
WESTCENTRAL MOUNTAINS/SOUTHWEST MOUNTAINS

CITY           SKY/WX    TMP DP  RH WIND       PRES   REMARKS
GALLUP         FAIR      62   8  12 SW13      29.99R
GRANTS         FAIR      63   5  10 W10G16    30.01R
SILVER CITY    FAIR      63  16  16 NW9       30.00R

$$
NMZ407-409-411-412-260600-
SOUTHERN DESERTS

CITY           SKY/WX    TMP DP  RH WIND       PRES   REMARKS
DEMING         FAIR      75  18  11 W14       29.92R
LAS CRUCES     FAIR      72  15  11 W10       29.94R
HOLLOMAN AFB   FAIR      75  15  10 W10       29.92R
ALAMOGORDO     FAIR      70  16  12 E5        29.90R
T OR C         FAIR      75  11   8 W10       29.92R

$$
NMZ519>523-260600-
CENTRAL VALLEYS/CENTRAL HIGHLANDS

CITY           SKY/WX    TMP DP  RH WIND       PRES   REMARKS
ALBUQUERQUE    MOCLDY    70   4   7 SW7       29.93R
DOUBLE EAGLE   FAIR      64   8  11 SW13      29.95R
MORIARTY ARPT  FAIR      69  10  10 W13       29.96R
CLINES CORNERS FAIR      61   5  10 W20       30.00R
BELEN          FAIR      67   8  10 SW12      29.93R
SOCORRO        NOT AVBL

$$
NMZ524>526-539-540-260600-
SOUTHCENTRAL MOUNTAINS

CITY           SKY/WX    TMP DP  RH WIND       PRES   REMARKS
RUIDOSO        NOT AVBL

$$
NMZ527>531-260600-
NORTHEAST HIGHLANDS/NORTHEAST PLAINS

CITY           SKY/WX    TMP DP  RH WIND       PRES   REMARKS
LAS VEGAS      FAIR      65   7  10 W21G28    29.93R
RATON          FAIR      61  25  25 NW5       29.86R
CLAYTON        FAIR      57  45  64 N14       29.79R

$$
NMZ532>537-260600-
EASTCENTRAL PLAINS

CITY           SKY/WX    TMP DP  RH WIND       PRES   REMARKS
SANTA ROSA     FAIR      71  15  12 SW8       29.81R
TUCUMCARI      FAIR      73  23  15 W14       29.70R
CANNON AFB     FAIR      71  24  17 W13       29.79R
CLOVIS AIRPORT FAIR      70  25  18 SW15      29.77R

$$
NMZ028-029-538-260600-
SOUTHEAST PLAINS

CITY           SKY/WX    TMP DP  RH WIND       PRES   REMARKS
ROSWELL        FAIR      77  18  11 W13       29.79R
ARTESIA        FAIR      75  21  13 SW8       29.80R
CARLSBAD       FAIR      78  26  14 W12       29.78R
HOBBS          FAIR      75  25  15 W9        29.82R


$$




USA.gov is the U.S. government's official web portal to all federal, state and local government web resources and services.